Home > Weather > Whangarei > Past weeks

Flag for New Zealand Weather for the Past 2 Weeks in Whangarei, New Zealand

Now
72 °F

Passing clouds.


Feels Like: 75 °F
Forecast: 52 / 70 °F
Wind: 10 mph from West

Location: Auckland Airport

Current Time: May 2, 2016 at 2:32:51 PM

Latest Report: May 2, 2016 at 2:00 PM


Visibility: N/A

Pressure: 30.18 "Hg

Humidity: 65%

Dew Point: 59 °F

Location of WhangareiLocation

Historic Weather in Whangarei — Graph

°F

Whangarei Temperature Yesterday

Maximum temperature yesterday: 70 °F (at 11:30 AM)
Minimum temperature yesterday: 54 °F (at 2:30 AM)
Average temperature yesterday: 61 °F

High & Low Weather Summary for the Past Weeks

 TemperatureHumidityPressure
High73 °F (May 2, 1:30 PM)100% (Apr 17, 2:30 PM)30.42 "Hg (Apr 17, 2:30 PM)
Low52 °F (Apr 23, 6:30 AM)47% (Apr 22, 3:00 PM)29.86 "Hg (Apr 17, 5:30 PM)
Average62 °F79%30.21 "Hg
* Reported Apr 17 1:00 PM — May 2 1:30 PM, Whangarei, Weather by CustomWeather, © 2016

Note: Actual official high and low records may vary slightly from our data, if they occured in-between our weather recording intervals... More about our weather records

Advertising

Whangarei Weather History for the Previous 24 Hours

Scroll right to see more
 ConditionsComfort  
Time TempWeatherWind HumidityBarometerVisibility
1:30 PM
Mon, May 2
73 °FPassing clouds.10 mph61%30.18 "HgN/A
1:00 PM72 °FBroken clouds.8 mph65%30.21 "HgN/A
12:30 PM72 °FPartly sunny.8 mph65%30.21 "HgN/A
11:30 AM68 °FPartly sunny.8 mph73%30.24 "HgN/A
11:00 AM70 °FScattered clouds.10 mph73%30.24 "HgN/A
10:30 AM66 °FMild.8 mph83%30.24 "HgN/A
10:00 AM66 °FMild.7 mph83%30.24 "HgN/A
9:30 AM64 °FMild.3 mph88%30.27 "HgN/A
9:00 AM63 °FPassing clouds.2 mph94%30.27 "HgN/A
8:30 AM61 °FBroken clouds.2 mph100%30.24 "HgN/A
8:00 AM61 °FPartly sunny.No wind100%30.24 "HgN/A
7:30 AM59 °FPartly sunny.No wind100%30.24 "HgN/A
7:00 AM59 °FOvercast.1 mph100%30.24 "HgN/A
6:30 AM59 °FBroken clouds.2 mph100%30.24 "HgN/A
6:00 AM59 °FPassing clouds.No wind100%30.24 "HgN/A
5:30 AM59 °FPassing clouds.No wind100%30.24 "HgN/A
5:00 AM57 °FPassing clouds.1 mph100%30.24 "HgN/A
4:30 AM57 °FOvercast.2 mph100%30.24 "HgN/A
4:00 AM57 °FPassing clouds.2 mph100%30.24 "Hg6 mi
3:30 AM57 °FPassing clouds.1 mph100%30.27 "HgN/A
3:00 AM57 °FPassing clouds.No wind100%30.27 "Hg1 mi
2:30 AM57 °FPassing clouds.1 mph100%30.27 "Hg6 mi
2:00 AM57 °FFog.1 mph100%30.27 "Hg3 mi
1:30 AM57 °FFog.1 mph100%30.30 "Hg2 mi
1:00 AM59 °FPassing clouds.1 mph94%30.30 "Hg4 mi
12:30 AM59 °FPassing clouds.2 mph100%30.30 "Hg2 mi
12:00 AM59 °FPassing clouds.1 mph100%30.30 "Hg4 mi
11:30 PM
Sun, May 1
59 °FPassing clouds.3 mph100%30.30 "Hg4 mi
11:00 PM59 °FPassing clouds.5 mph100%30.30 "HgN/A
10:30 PM61 °FPassing clouds.3 mph94%30.30 "HgN/A
10:00 PM61 °FMostly cloudy.3 mph94%30.33 "HgN/A
9:30 PM61 °FPassing clouds.3 mph94%30.30 "HgN/A
9:00 PM61 °FSprinkles. Partly cloudy.1 mph94%30.33 "HgN/A
8:30 PM63 °FPartly cloudy.7 mph94%30.33 "HgN/A
8:00 PM63 °FLight rain. Passing clouds.6 mph94%30.33 "Hg4 mi
7:30 PM63 °FSprinkles. Partly cloudy.5 mph94%30.33 "Hg5 mi
7:00 PM61 °FMostly cloudy.1 mph100%30.33 "HgN/A
6:30 PM61 °FSprinkles. Passing clouds.5 mph100%30.30 "HgN/A
6:00 PM61 °FRain showers. Overcast.9 mph100%30.30 "Hg4 mi
5:30 PM63 °FPartly cloudy.10 mph88%30.30 "HgN/A
4:30 PM66 °FScattered showers. Mostly cloudy.7 mph68%30.30 "HgN/A
4:00 PM68 °FPartly sunny.8 mph60%30.30 "HgN/A
3:00 PM68 °FPartly sunny.10 mph69%30.30 "HgN/A
2:30 PM68 °FPartly sunny.13 mph64%30.33 "HgN/A
2:00 PM70 °FPassing clouds.12 mph60%30.33 "HgN/A
Weather by CustomWeather, © 2016

See weather overviewHow to use our weather pages